This demonstration page uses our WeatherBlox Daily Observations layout. Learn more.

Left ArrowRight Arrow

38.20091, -84.87328

Hourly Observations for July 2, 2020

Temp ( °F °C ) Dew Point ( °F °C ) Humidity (%) Winds ( mph kmh ) Pressure ( in mb ) Visibility ( mi km ) Precip ( " mm )
12:53 am 00:53 Clear 73 22.8 70 21.1 90 90 SW 5 7 29.90 1012 10 16 0.00 0.00
1:53 am 01:53 Mostly Cloudy 73 22.8 70 21.1 90 90 Calm 29.90 1013 10 16 0.00 0.00
2:53 am 02:53 Cloudy 73 22.8 71 21.7 94 94 Calm 29.91 1013 10 16 0.00 0.00
3:53 am 03:53 Cloudy 73 22.8 70 21.1 90 90 Calm 29.92 1013 10 16 0.00 0.00
4:53 am 04:53 Mostly Cloudy 71 21.7 69 20.6 94 94 Calm 29.92 1013 10 16 0.00 0.00
5:53 am 05:53 Clear 71 21.7 69 20.6 94 94 Calm 29.93 1014 10 16 0.00 0.00
6:53 am 06:53 Mostly Sunny 72 22.2 70 21.1 94 94 Calm 29.94 1014 8 13 0.00 0.00
7:53 am 07:53 Sunny 73 22.8 70 21.1 90 90 E 3 6 29.96 1014 10 16 0.00 0.00
8:53 am 08:53 Sunny 78 25.6 68 20 71 71 ENE 5 7 29.97 1015 10 16 0.00 0.00
9:53 am 09:53 Sunny 81 27.2 68 20 65 65 E 6 9 29.98 1015 10 16 0.00 0.00
10:53 am 10:53 Sunny 84 28.9 68 20 59 59 ENE 7 11 29.97 1015 10 16 0.00 0.00
11:53 am 11:53 Sunny 87 30.6 67 19.4 51 51 E 10 17 29.97 1015 10 16 0.00 0.00
12:53 pm 12:53 Mostly Sunny 87 30.6 65 18.3 48 48 ENE 7 11 29.98 1015 10 16 0.00 0.00
1:53 pm 13:53 Partly Cloudy 90 32.2 66 18.9 45 45 ENE 8 13 29.97 1015 10 16 0.00 0.00
2:53 pm 14:53 Mostly Sunny 90 32.2 62 16.7 39 39 NNE 7 11 29.97 1015 10 16 0.00 0.00
3:53 pm 15:53 Partly Cloudy 91 32.8 63 17.2 39 39 NNE 6 9 29.97 1015 10 16 0.00 0.00
4:53 pm 16:53 Sunny 90 32.2 61 16.1 38 38 N 6 9 29.96 1015 10 16 0.00 0.00
5:53 pm 17:53 Sunny 90 32.2 61 16.1 38 38 NNE 5 7 29.95 1014 10 16 0.00 0.00
6:53 pm 18:53 Sunny 89 31.7 61 16.1 39 39 ENE 7 11 29.94 1014 10 16 0.00 0.00
7:53 pm 19:53 Sunny 87 30.6 62 16.7 43 43 ENE 6 9 29.94 1014 10 16 0.00 0.00
8:53 pm 20:53 Sunny 85 29.4 62 16.7 46 46 NNE 3 6 29.93 1014 10 16 0.00 0.00
9:53 pm 21:53 Clear 82 27.8 63 17.2 53 53 NNE 3 6 29.93 1014 10 16 0.00 0.00
10:53 pm 22:53 Clear 72 22.2 65 18.3 79 79 Calm 29.96 1015 10 16 0.00 0.00
11:53 pm 23:53 Clear 72 22.2 65 18.3 79 79 Calm 29.97 1015 10 16 0.00 0.00

Powered by AerisWeather